Location: Clanezzo
(45.7500°N, 9.6000°E)
Time: 03:45:23
(UTC+00:00)

ESTCUBE 1 - Pass Details

Date: 07 July 2022
Orbit: 646 x 657 km, 97.9° (Epoch: 13 August)

Event Time Altitude Azimuth Distance (km) Brightness Sun altitude
Exits shadow 21:02:59 23° 140° (SE) 1,368 ? -14.3°
Maximum altitude 21:05:33 54° 72° (ENE) 794 ? -14.6°
Drops below altitude 10° 21:09:56 10° 356° (N) 2,064 ? -15.0°
Sets 21:12:11 0° 352° (N) 2,982 ? -15.2°
